1st Responders/1st Detectors/Storm Spotters Weather Summary for Harrison County, KY

Forecast Maps


Reg. NEXRAD Animation


National Fire Danger: Day 1 & 2 Map

Current NWS Watch/Warnings

SPC Convective Day 1 Outlook


Day 2 Outlook

(Click images to enlarge|Page will refresh every 5 minutes)
UK Ag. Weather Center Desktop Severe Weather Service[HERE]
Harrison County, KY Hazardous Weather Outlook Webcast
(9 AM to 9 PM Mon-Fri)
[Fast]
[Dial-up]


UKAWC 1st Detectors/1st Responders Precision Weather Forecast For HARRISON County, Kentucky
(based on the NWS County Digital Forecast)

ISSUED AT 04:00 UTC ON SUNDAY JUL 22 2018
DAY SUNDAY
EDT 3HR 1A 2A 3A 4A 5A 6A 7A 8A 9A 10A 11A NOON 1P 2P 3P 4P 5P 6P 7P
MAX/MIN -- -- -- -- -- -- -- 65° -- -- -- -- -- -- -- -- -- -- 77°
TEMP 67° 67° 67° 67° 65° 65° 65° 67° 67° 70° 72° 74° 74° 76° 76° 77° 77° 77° 76°
SKY COVER 89% 91% 92% 92% 93% 94% 96% 97% 97% 97% 98% 97% 95% 94% 91% 88% 85% 86% 86%
Clouds
DEW PT 67° 67° 67° 67° 65° 65° 65° 65° 65° 67° 67° 67° 68° 68° 68° 68° 68° 68° 68°
RH 96% 96% 96% 100% 99% 99% 99% 97% 93% 90% 83% 82% 81% 78% 75% 73% 73% 73% 76%
POP 12HR -- -- -- -- -- -- -- 48% -- -- -- -- -- -- -- -- -- -- --
RAIN/SNOW (liq.equ) -- 0.08in -- -- -- -- -- 0.08in -- -- -- -- -- 0.07in -- -- -- -- --
SNOWFALL -- 0in -- -- -- -- -- 0in -- -- -- -- -- 0in -- -- -- -- --
WIND SPEED(MPH) 6 7 7 7 7 7 7 7 7 6 6 6 5 5 5 6 6 6 5
WIND Gust(MPH) 7 8 9 9 8 8 9 8 8 8 7 7 7 7 7 7 7 7 7
WIND DIR W W W W W W W W W W W W NW NW NW N N N N
DEW Mod Dew -- -- -- -- -- -- -- -- -- -- -- -- -- -- Lgt Dew Lgt Dew Lgt Dew Lgt Dew
HeatIndex 67 67 67 67 65 65 65 67 67 70 72 74 74 76 76 77 77 77 76
Rain Showers Chance Slight Chance Chance Chance Chance Chance Chance Chance Chance Chance Chance Chance Chance Likely Likely Likely Likely Likely Likely
Thunder Storm Slight Chance Slight Chance Slight Chance Slight Chance Slight Chance Slight Chance Slight Chance Slight Chance Slight Chance Slight Chance Slight Chance Slight Chance Slight Chance Slight Chance Slight Chance Slight Chance Slight Chance Slight Chance Slight Chance
WIND CHILL -- -- -- -- -- -- -- -- -- -- -- -- -- -- -- -- -- -- --
SPRAY COND
DRY COND
LIVESTOCK HEATSTRESS 66.82 66.82 66.82 67.00 64.97 64.97 64.97 66.86 66.68 69.38 70.77 72.50 72.41 73.92 73.64 74.30 74.30 74.30 73.73



DAY MONDAY TUESDAY WEDNESDAY THURSDAY FRIDAY SATURDAY
EDT 6HR 8P 9P 10P 11P MIDN 1A 2A 3A 4A 5A 6A 7A 8A 9A 10A 11A NOON 2P 5P 8P 11P 2A 5A 8A 11A 2P 5P 8P 2A 8A 2P 8P 2A 8A 2P 8P 2A 8A 2P 8P 2A 8A 2P 8P
MAX/MIN -- -- -- -- -- -- -- -- -- -- -- -- 65° -- -- -- -- -- 79° -- -- -- -- 65° -- -- 83° -- -- 67° 83° -- -- 67° 85° -- -- 65° 83° -- -- 65° 83° --
TEMP 76° 74° 72° 72° 70° 68° 67° 65° 65° 65° 65° 65° 65° 67° 67° 70° 72° 76° 79° 76° 70° 68° 65° 68° 79° 83° 83° 79° 70° 70° 83° 79° 68° 68° 85° 81° 68° 67° 83° 77° 68° 67° 81° 76°
SKY COVER 87% 86% 83% 82% 81% 80% 80% 81% 82% 83% 84% 86% 87% 86% 84% 83% 80% 73% 67% 70% 69% 70% 61% 66% 62% 69% 74% 78% 72% 71% 74% 63% 46% 37% 37% 37% 41% 43% 46% 47% 58% 53% 52% 53%
Clouds
DEW PT 68° 67° 67° 67° 65° 65° 65° 65° 63° 63° 63° 63° 63° 63° 63° 63° 65° 65° 65° 67° 65° 65° 65° 67° 68° 70° 70° 70° 68° 68° 70° 70° 67° 67° 67° 68° 65° 65° 67° 67° 63° 63° 65° 65°
RH 76% 78% 84% 84% 87% 89% 90% 96% 93% 97% 96% 96% 92% 89% 87% 81% 78% 68% 59% 73% 84% 90% 96% 93% 71% 62% 62% 74% 93% 96% 66% 74% 97% 96% 55% 66% 89% 93% 59% 69% 84% 90% 58% 69%
POP 12HR 62% -- -- -- -- -- -- -- -- -- -- -- 46% -- -- -- -- -- -- 36% -- -- -- 14% -- -- -- 54% -- 25% -- 44% -- 9% -- 4% -- 5% -- 30% -- 12% -- 15%
RAIN/SNOW (liq.equ) 0.25in -- -- -- -- -- 0.05in -- -- -- -- -- 0.00in -- -- -- -- 0.01in -- 0.04in -- 0.00in -- 0.00in -- 0.00in -- 0.15in -- -- -- -- -- -- -- -- -- -- -- -- -- -- -- --
SNOWFALL 0in -- -- -- -- -- 0in -- -- -- -- -- 0in -- -- -- -- 0in -- 0in -- 0in -- 0in -- 0in -- 0in -- -- -- -- -- -- -- -- -- -- -- -- -- -- -- --
WIND SPEED(MPH) 5 5 6 6 6 6 6 6 5 5 5 5 5 5 5 5 5 6 7 5 2 2 2 5 6 5 5 5 2 2 2 2 2 2 6 5 2 5 6 5 2 5 6 5
WIND DIR N N N N N N N N N N N N N N N N N N N N N N N N NE NE NE NE NE N N NW NW W NW W N N W N NE NE N NE
HeatIndex 76 74 72 72 70 68 67 65 65 65 65 65 65 67 67 70 72 76 81 76 70 68 65 68 79 88 88 83 70 70 87 79 68 68 87 84 68 67 85 77 68 67 84 76
Rain Showers Chance Chance Chance Chance Chance Chance Slight Chance Slight Chance Slight Chance Slight Chance Slight Chance Slight Chance Chance Chance Chance Chance Chance Chance Chance -- -- -- -- Slight Chance Slight Chance Chance Chance Slight Chance Chance Chance Chance -- -- -- -- -- -- Chance Chance -- -- -- Slight Chance --
Thunder Storm Slight Chance Slight Chance Slight Chance Slight Chance Slight Chance Slight Chance Slight Chance Slight Chance Slight Chance Slight Chance Slight Chance Slight Chance Chance Chance Chance Chance Chance Chance Chance -- -- -- -- Slight Chance Slight Chance Chance Chance Slight Chance Chance Chance Chance -- -- -- -- -- -- Chance Chance -- -- -- Slight Chance --
WIND CHILL -- -- -- -- -- -- -- -- -- -- -- -- -- -- -- -- -- -- -- -- -- -- -- -- -- -- -- -- -- -- -- -- -- -- -- -- -- -- -- -- -- -- -- --
SPRAY COND
DRY COND
LIVESTOCK HEATSTRESS 73.73 72.16 70.84 70.84 69.20 67.44 66.55 64.86 64.76 64.90 64.86 64.86 64.73 66.50 66.41 68.83 70.40 72.97 74.44 73.45 69.01 67.49 64.86 67.65 75.78 77.94 77.94 76.11 69.57 69.75 78.47 76.11 67.85 67.80 78.52 76.85 67.44 66.68 77.54 73.90 67.19 66.55 75.87 73.07

Click on individual weather variable above in left-hand column (ie., TEMP, RH, QPF 12HR) to view state forecast maps






NWS 48 Hr. Forecast Maps,

Regional Hourly Observations For HARRISON County, Kentucky
Issued at 1200 AM EDT SUN JUL 22 2018
NORTHEAST KENTUCKY
  
CITY           SKY/WX    TMP DP  RH WIND       PRES   REMARKS
LEXINGTON      CLOUDY    70  67  90 W9        29.76F                  
COVINGTON      CLOUDY    70  70 100 SW6       29.71F                  
FRANKFORT      CLOUDY    71  68  90 SW9       29.75F                  


Current NOWCAST not available:
Nowcasts are not issued routinely during fair weather. Only when
precipitation or other significant weather is occuring in this county will these
forecasts be issued. Currently, there is no short term forecast in effect.


Fire Weather Forecast For HARRISON County, KY
Provided by the National Weather Service:

Issued at: Sun Jul 22 00:05:01 EDT 2018


                      Today        Tonight      Sun          

CLOUD COVER           MCldy        MCldy        MCldy        
PRECIP TYPE           tstms        tstms        tstms        
CHANCE PRECIP (%)     70           70           70           
TEMP (24H TREND)      80 (-5)      66 (+2)      77           
RH % (24H TREND)      64 (+1)      100 (+1)     73           
20FTWND-VAL/AM(MPH)   SW  7                     W  5         
20FTWND-RDG/PM(MPH)   W  8         W  6         W  5         
PRECIP AMOUNT         0.24         0.20         0.25         
MIXING HGT(FT-AGL/MSL)5231                      2995         
TRANSPORT WND (MPH)   W 17                      W  9         
VENT RATE (KT-FT)     86530                     27896        
DISPERSION            Good                      Poor         
DSI                   SLGT UNSTBL  SLGT UNSTBL  SLGT UNSTBL  
LAL                   5            5            4            
HAINES INDEX          3            3            3            
ADI EARLY             44 GEN GOOD  9 POOR       17 GEN POOR  
ADI LATE              53 GEN GOOD  5 VERY POOR  22 FAIR      
MAX LVORI EARLY       6            7            8            
MAX LVORI LATE        3            7            4            

REMARKS...ADI IS ATMOSPHERIC DISPERSION INDEX BY LAVDAS.        
LVORI IS LOW VISIBILITY OCCURRENCE RISK INDEX.

.MONDAY...Mostly cloudy with a 50 percent chance of showers and
thunderstorms. Lows in the mid 60s. Highs around 80. Light winds.
.TUESDAY...Mostly cloudy. A 50 percent chance of showers and
thunderstorms. Lows in the upper 60s. Highs in the mid 80s.
Northeast winds up to 5 mph. 
.WEDNESDAY...Mostly cloudy with a 50 percent chance of showers
and thunderstorms. Lows in the upper 60s. Highs in the mid 80s.
North winds up to 5 mph. 
.THURSDAY...Mostly cloudy. Lows in the upper 60s. Highs in the
mid 80s. Northwest winds up to 5 mph. 
.FRIDAY...Partly cloudy. Lows in the mid 60s. Highs in the mid
80s. North winds up to 5 mph. 

SPC's Fire Weather Web Tool (Excellent!), SPC's Fire Weather Outlooks, NWS Fire Weather WEB, Fire Danger Class Map,
Keetch-Byram Drought Index, ROMAN Web, Haines Index ,
WFAS's 10-hr Dead Fuel Moist., WFAS's 100-hr Dead Fuel Moist., Probablity of Ignition, Visual blackness Map, Palmer Drought Index, HPC's Rainfall Forecast Maps


Hazardous Weather Outlook For HARRISON County, Kentucky
249 PM EDT Sat Jul 21 2018 /149 PM CDT Sat Jul 21 2018/

 DAY ONE  Tonight.

Isolated thunderstorms will be possible this evening. Heavy rainfall
will be the main threat with the stronger storms. 

 DAYS TWO THROUGH SEVEN  Sunday through Friday.

Scattered afternoon and evening storms are expected each day through
the next work week as the weather pattern remains unsettled.

 SPOTTER INFORMATION STATEMENT  

Spotters are encourage to report wind damage, hail, or flooding from
Friday's storms.

Latest HARRISON County, Kentucky Watches, Warnings and Advisories.
Additional Drought Info.: UKAWC Drought Page, Kentucky Drought Watch


7-Day Forecast For HARRISON County, KY

TONIGHT
Cloudy with chance of showers and slight chance of thunderstorms. Lows in the mid 60s. West winds 5 to 10 mph. Chance of precipitation 50 percent.

SUNDAY
Showers likely and slight chance of thunderstorms. Highs in the upper 70s. West winds 5 to 10 mph. Chance of precipitation 60 percent.

SUNDAY NIGHT
Mostly cloudy with chance of showers and slight chance of thunderstorms. Lows in the mid 60s. North winds around 5 mph. Chance of precipitation 50 percent.

MONDAY
Mostly cloudy with a 40 percent chance of showers and thunderstorms. Highs in the upper 70s. North winds around 5 mph.

MONDAY NIGHT
Partly cloudy with a 20 percent chance of showers and thunderstorms. Lows in the mid 60s. North winds around 5 mph.

TUESDAY
Partly cloudy with a 50 percent chance of showers and thunderstorms. Highs in the mid 80s.

TUESDAY NIGHT
Mostly cloudy with a 50 percent chance of showers and thunderstorms. Lows in the upper 60s.

WEDNESDAY
Mostly cloudy with a 40 percent chance of showers and thunderstorms. Highs in the mid 80s.

WEDNESDAY NIGHT
Partly cloudy. Lows in the upper 60s.

THURSDAY
Partly cloudy. Highs in the mid 80s.

THURSDAY NIGHT
Partly cloudy. Lows in the mid 60s.

FRIDAY
Partly cloudy with a 30 percent chance of showers and thunderstorms. Highs in the lower 80s.

FRIDAY NIGHT
Partly cloudy. Lows in the mid 60s.

SATURDAY
Partly cloudy with a 20 percent chance of showers and thunderstorms. Highs in the lower 80s.

Ag Weather Center, Department of Biosystems & Agricultural Engineering, University of Kentucky